2021-11-19 00:03:26 r, 15.32m,0000000061Hz,0000007346c,0000000.016s, 007.7C,00002191
2021-11-19 00:13:24 r, 15.32m,0000000063Hz,0000007346c,0000000.016s, 007.7C,00002191
2021-11-19 00:23:26 r, 15.34m,0000000061Hz,0000007458c,0000000.016s, 007.7C,00002191
2021-11-19 00:33:24 r, 15.32m,0000000062Hz,0000007346c,0000000.016s, 007.7C,00002191
2021-11-19 00:43:24 r, 15.43m,0000000057Hz,0000008146c,0000000.018s, 007.7C,00002191
2021-11-19 00:53:26 r, 15.63m,0000000047Hz,0000009837c,0000000.021s, 007.7C,00002191
2021-11-19 01:03:24 r, 15.83m,0000000040Hz,0000011804c,0000000.026s, 007.7C,00002191
2021-11-19 01:13:23 r, 16.07m,0000000031Hz,0000014761c,0000000.032s, 007.7C,00002191
2021-11-19 01:23:24 r, 16.35m,0000000024Hz,0000019134c,0000000.042s, 007.7C,00002191
2021-11-19 01:33:25 r, 16.57m,0000000020Hz,0000023303c,0000000.051s, 007.7C,00002191
2021-11-19 01:43:23 r, 16.83m,0000000016Hz,0000029545c,0000000.064s, 008.0C,00002191
2021-11-19 01:53:25 r, 17.22m,0000000011Hz,0000042662c,0000000.093s, 008.0C,00002191
2021-11-19 02:03:24 r, 17.48m,0000000008Hz,0000054014c,0000000.117s, 008.0C,00002191
2021-11-19 02:13:24 r, 17.92m,0000000005Hz,0000081118c,0000000.176s, 008.0C,00002191
2021-11-19 02:23:24 r, 18.85m,0000000002Hz,0000190159c,0000000.413s, 008.0C,00002191
2021-11-19 02:33:26 r, 19.65m,0000000001Hz,0000397627c,0000000.863s, 007.7C,00002191
2021-11-19 02:43:23 r, 19.79m,0000000001Hz,0000454073c,0000000.985s, 007.7C,00002191
2021-11-19 02:53:26 r, 19.50m,0000000001Hz,0000345486c,0000000.750s, 007.4C,00002191
2021-11-19 03:03:24 r, 19.41m,0000000001Hz,0000320561c,0000000.696s, 007.0C,00002191
2021-11-19 03:13:23 r, 18.83m,0000000003Hz,0000186090c,0000000.404s, 007.0C,00002191
2021-11-19 03:23:24 r, 18.32m,0000000003Hz,0000116770c,0000000.253s, 007.0C,00002191
2021-11-19 03:33:25 r, 18.02m,0000000005Hz,0000088957c,0000000.193s, 007.0C,00002191
2021-11-19 03:43:23 r, 18.47m,0000000003Hz,0000134183c,0000000.291s, 007.4C,00002191
2021-11-19 03:53:25 r, 18.46m,0000000004Hz,0000133613c,0000000.290s, 007.4C,00002191
2021-11-19 04:03:24 r, 18.41m,0000000004Hz,0000126970c,0000000.276s, 007.4C,00002191
2021-11-19 04:13:23 r, 18.13m,0000000005Hz,0000097895c,0000000.212s, 007.4C,00002191
2021-11-19 04:23:24 r, 17.74m,0000000007Hz,0000068812c,0000000.149s, 007.4C,00002191
2021-11-19 04:33:26 r, 17.45m,0000000009Hz,0000052501c,0000000.114s, 007.4C,00002191
2021-11-19 04:43:23 r, 17.31m,0000000010Hz,0000045912c,0000000.100s, 007.4C,00002191
2021-11-19 04:53:26 r, 17.09m,0000000012Hz,0000037603c,0000000.082s, 007.4C,00002191
2021-11-19 05:03:24 r, 17.03m,0000000013Hz,0000035670c,0000000.077s, 007.4C,00002191
2021-11-19 05:13:23 r, 16.80m,0000000016Hz,0000028723c,0000000.062s, 007.4C,00002191
2021-11-19 05:23:26 r, 17.05m,0000000013Hz,0000036100c,0000000.078s, 007.4C,00002191
2021-11-19 05:33:24 r, 17.05m,0000000013Hz,0000036148c,0000000.078s, 007.7C,00002191
2021-11-19 05:43:23 r, 17.07m,0000000013Hz,0000037081c,0000000.080s, 007.7C,00002191
2021-11-19 05:53:24 r, 17.20m,0000000011Hz,0000041949c,0000000.091s, 007.7C,00002191
2021-11-19 06:03:25 r, 17.21m,0000000010Hz,0000042124c,0000000.091s, 007.7C,00002191
2021-11-19 06:13:23 r, 17.16m,0000000012Hz,0000040394c,0000000.088s, 008.0C,00002191
2021-11-19 06:23:25 r, 17.14m,0000000011Hz,0000039426c,0000000.086s, 008.0C,00002191
2021-11-19 06:33:24 r, 17.29m,0000000010Hz,0000045133c,0000000.098s, 008.3C,00002191
2021-11-19 06:43:23 r, 16.96m,0000000014Hz,0000033304c,0000000.072s, 008.3C,00002191
2021-11-19 06:53:24 r, 16.23m,0000000027Hz,0000017030c,0000000.037s, 008.7C,00002191
2021-11-19 07:03:26 r, 14.88m,0000000093Hz,0000004913c,0000000.011s, 008.7C,00002191
2021-11-19 07:13:23 r, 13.11m,0000000483Hz,0000000000c,0000000.000s, 008.7C,00002191
2021-11-19 07:23:24 r, 11.19m,0000002830Hz,0000000000c,0000000.000s, 009.0C,00002191
2021-11-19 07:33:24 r, 09.52m,0000013140Hz,0000000000c,0000000.000s, 009.0C,00002191
2021-11-19 07:43:23 r, 08.34m,0000039001Hz,0000000000c,0000000.000s, 009.0C,00002191
2021-11-19 07:53:23 r, 07.31m,0000101201Hz,0000000000c,0000000.000s, 009.3C,00002191
2021-11-19 08:03:24 r, 06.47m,0000217441Hz,0000000000c,0000000.000s, 009.3C,00002191
2021-11-19 08:13:23 r, 05.96m,0000350015Hz,0000000000c,0000000.000s, 009.6C,00002191
2021-11-19 08:23:24 r, 00.00m,0000598758Hz,0000000000c,0000000.000s, 009.9C,00002191
2021-11-19 08:33:25 r, 00.00m,0000598747Hz,0000000000c,0000000.000s, 010.3C,00002191
2021-11-19 08:43:23 r, 00.00m,0000598761Hz,0000000000c,0000000.000s, 010.6C,00002191
2021-11-19 08:53:24 r, 00.00m,0000598703Hz,0000000000c,0000000.000s, 010.9C,00002191
2021-11-19 09:03:26 r, 00.00m,0000598559Hz,0000000000c,0000000.000s, 011.6C,00002191
2021-11-19 09:13:23 r, 00.00m,0000598494Hz,0000000000c,0000000.000s, 011.9C,00002191
2021-11-19 09:23:24 r, 00.00m,0000598524Hz,0000000000c,0000000.000s, 012.2C,00002191
2021-11-19 09:33:26 r, 00.00m,0000598504Hz,0000000000c,0000000.000s, 012.8C,00002191
2021-11-19 09:43:23 r, 00.00m,0000598378Hz,0000000000c,0000000.000s, 013.2C,00002191
2021-11-19 09:53:23 r, 00.00m,0000598319Hz,0000000000c,0000000.000s, 013.5C,00002191
2021-11-19 10:03:24 r, 00.00m,0000598241Hz,0000000000c,0000000.000s, 014.1C,00002191
2021-11-19 10:13:23 r, 00.00m,0000598202Hz,0000000000c,0000000.000s, 014.8C,00002191
2021-11-19 10:23:23 r, 00.00m,0000598295Hz,0000000000c,0000000.000s, 014.8C,00002191
2021-11-19 10:33:24 r, 00.00m,0000598211Hz,0000000000c,0000000.000s, 014.8C,00002191
2021-11-19 10:43:23 r, 00.00m,0000598117Hz,0000000000c,0000000.000s, 015.4C,00002191
2021-11-19 10:53:23 r, 00.00m,0000598159Hz,0000000000c,0000000.000s, 016.4C,00002191
2021-11-19 11:03:26 r, 00.00m,0000598026Hz,0000000000c,0000000.000s, 016.7C,00002191
2021-11-19 11:13:23 r, 00.00m,0000597905Hz,0000000000c,0000000.000s, 017.0C,00002191
2021-11-19 11:23:23 r, 00.00m,0000597927Hz,0000000000c,0000000.000s, 017.7C,00002191
2021-11-19 11:33:26 r, 00.00m,0000597822Hz,0000000000c,0000000.000s, 017.7C,00002191
2021-11-19 11:43:23 r, 00.00m,0000598011Hz,0000000000c,0000000.000s, 017.7C,00002191
2021-11-19 11:53:23 r, 00.00m,0000597816Hz,0000000000c,0000000.000s, 018.0C,00002191
2021-11-19 12:03:24 r, 00.00m,0000597879Hz,0000000000c,0000000.000s, 017.7C,00002191
2021-11-19 12:13:23 r, 00.00m,0000597862Hz,0000000000c,0000000.000s, 017.4C,00002191
2021-11-19 12:23:23 r, 00.00m,0000597965Hz,0000000000c,0000000.000s, 017.0C,00002191
2021-11-19 12:33:24 r, 00.00m,0000597919Hz,0000000000c,0000000.000s, 017.0C,00002191
2021-11-19 12:43:23 r, 00.00m,0000597963Hz,0000000000c,0000000.000s, 017.0C,00002191
2021-11-19 12:53:23 r, 00.00m,0000597937Hz,0000000000c,0000000.000s, 017.0C,00002191
2021-11-19 13:03:25 r, 00.00m,0000597947Hz,0000000000c,0000000.000s, 017.0C,00002191
2021-11-19 13:13:23 r, 00.00m,0000597996Hz,0000000000c,0000000.000s, 017.0C,00002191
2021-11-19 13:23:23 r, 00.00m,0000597975Hz,0000000000c,0000000.000s, 017.0C,00002191
2021-11-19 13:33:26 r, 00.00m,0000598036Hz,0000000000c,0000000.000s, 016.7C,00002191
2021-11-19 13:43:23 r, 00.00m,0000598001Hz,0000000000c,0000000.000s, 016.4C,00002191
2021-11-19 13:53:24 r, 00.00m,0000598116Hz,0000000000c,0000000.000s, 015.7C,00002191
2021-11-19 14:03:26 r, 00.00m,0000598149Hz,0000000000c,0000000.000s, 015.1C,00002191
2021-11-19 14:13:24 r, 00.00m,0000598298Hz,0000000000c,0000000.000s, 014.8C,00002191
2021-11-19 14:23:23 r, 00.00m,0000598278Hz,0000000000c,0000000.000s, 014.1C,00002191
2021-11-19 14:33:24 r, 00.00m,0000598382Hz,0000000000c,0000000.000s, 014.5C,00002191
2021-11-19 14:43:25 r, 00.00m,0000598261Hz,0000000000c,0000000.000s, 014.5C,00002191
2021-11-19 14:53:23 r, 00.00m,0000598259Hz,0000000000c,0000000.000s, 014.5C,00002191
2021-11-19 15:03:25 r, 00.00m,0000598296Hz,0000000000c,0000000.000s, 013.8C,00002191
2021-11-19 15:13:24 r, 00.00m,0000598347Hz,0000000000c,0000000.000s, 014.1C,00002191
2021-11-19 15:23:23 r, 00.00m,0000598302Hz,0000000000c,0000000.000s, 014.8C,00002191
2021-11-19 15:33:24 r, 00.00m,0000598283Hz,0000000000c,0000000.000s, 014.8C,00002191
2021-11-19 15:43:26 r, 00.00m,0000598279Hz,0000000000c,0000000.000s, 015.1C,00002191
2021-11-19 15:53:23 r, 00.00m,0000529323Hz,0000000000c,0000000.000s, 015.1C,00002191
2021-11-19 16:03:26 r, 00.00m,0000452658Hz,0000000000c,0000000.000s, 014.5C,00002191
2021-11-19 16:13:24 r, 06.11m,0000307117Hz,0000000000c,0000000.000s, 013.5C,00002191
2021-11-19 16:23:23 r, 06.71m,0000174147Hz,0000000000c,0000000.000s, 013.2C,00002191
2021-11-19 16:33:26 r, 07.34m,0000097926Hz,0000000000c,0000000.000s, 012.5C,00002191
2021-11-19 16:43:24 r, 08.23m,0000043164Hz,0000000000c,0000000.000s, 011.9C,00002191
2021-11-19 16:53:24 r, 09.44m,0000014105Hz,0000000000c,0000000.000s, 011.2C,00002191
2021-11-19 17:03:24 r, 11.10m,0000003083Hz,0000000000c,0000000.000s, 011.2C,00002191
2021-11-19 17:13:24 r, 13.08m,0000000496Hz,0000000000c,0000000.000s, 010.9C,00002191
2021-11-19 17:23:23 r, 15.10m,0000000077Hz,0000006044c,0000000.013s, 010.9C,00002191
2021-11-19 17:33:25 r, 16.83m,0000000016Hz,0000029611c,0000000.064s, 010.6C,00002191
2021-11-19 17:43:24 r, 17.66m,0000000007Hz,0000063269c,0000000.137s, 010.6C,00002191
2021-11-19 17:53:23 r, 18.42m,0000000004Hz,0000126609c,0000000.275s, 010.6C,00002191
2021-11-19 18:03:26 r, 18.51m,0000000004Hz,0000137348c,0000000.298s, 010.6C,00002191
2021-11-19 18:13:24 r, 18.15m,0000000005Hz,0000098922c,0000000.215s, 010.6C,00002191
2021-11-19 18:23:23 r, 18.01m,0000000005Hz,0000087493c,0000000.190s, 010.3C,00002191
2021-11-19 18:33:26 r, 17.64m,0000000007Hz,0000062183c,0000000.135s, 010.3C,00002191
2021-11-19 18:43:24 r, 17.30m,0000000010Hz,0000045685c,0000000.099s, 010.3C,00002191
2021-11-19 18:53:23 r, 17.34m,0000000010Hz,0000047542c,0000000.103s, 010.3C,00002191
2021-11-19 19:03:24 r, 17.47m,0000000009Hz,0000053602c,0000000.116s, 010.3C,00002191
2021-11-19 19:13:25 r, 17.75m,0000000007Hz,0000068630c,0000000.149s, 010.3C,00002191
2021-11-19 19:23:23 r, 17.81m,0000000006Hz,0000072248c,0000000.157s, 009.9C,00002191
2021-11-19 19:33:25 r, 17.62m,0000000007Hz,0000060817c,0000000.132s, 009.9C,00002191
2021-11-19 19:43:24 r, 17.71m,0000000007Hz,0000065899c,0000000.143s, 009.6C,00002191
2021-11-19 19:53:23 r, 17.39m,0000000010Hz,0000049366c,0000000.107s, 009.6C,00002191
2021-11-19 20:03:24 r, 17.67m,0000000007Hz,0000063494c,0000000.138s, 009.3C,00002191
2021-11-19 20:13:26 r, 17.31m,0000000010Hz,0000045809c,0000000.099s, 009.0C,00002191
2021-11-19 20:23:23 r, 17.61m,0000000007Hz,0000060176c,0000000.131s, 009.0C,00002191
2021-11-19 20:33:26 r, 17.56m,0000000008Hz,0000057586c,0000000.125s, 009.0C,00002191
2021-11-19 20:43:24 r, 17.45m,0000000009Hz,0000052311c,0000000.114s, 008.7C,00002191
2021-11-19 20:53:24 r, 17.12m,0000000012Hz,0000038820c,0000000.084s, 008.3C,00002191
2021-11-19 21:03:26 r, 17.19m,0000000011Hz,0000041023c,0000000.089s, 008.0C,00002191
2021-11-19 21:13:24 r, 17.22m,0000000010Hz,0000042337c,0000000.092s, 007.7C,00002191
2021-11-19 21:23:23 r, 17.33m,0000000009Hz,0000046878c,0000000.102s, 007.4C,00002191
2021-11-19 21:33:24 r, 17.36m,0000000010Hz,0000048180c,0000000.105s, 007.0C,00002191
2021-11-19 21:43:25 r, 17.32m,0000000010Hz,0000046489c,0000000.101s, 007.0C,00002191
2021-11-19 21:53:23 r, 17.24m,0000000010Hz,0000043439c,0000000.094s, 006.7C,00002191
2021-11-19 22:03:25 r, 17.14m,0000000012Hz,0000039182c,0000000.085s, 006.4C,00002191
2021-11-19 22:13:24 r, 17.08m,0000000012Hz,0000037188c,0000000.081s, 006.1C,00002191
2021-11-19 22:23:23 r, 16.70m,0000000016Hz,0000026155c,0000000.057s, 006.1C,00002191
2021-11-19 22:33:24 r, 16.53m,0000000020Hz,0000022458c,0000000.049s, 006.1C,00002191
2021-11-19 22:43:26 r, 16.62m,0000000020Hz,0000024329c,0000000.053s, 006.1C,00002191
2021-11-19 22:53:23 r, 16.27m,0000000028Hz,0000017720c,0000000.038s, 006.1C,00002191
2021-11-19 23:03:26 r, 15.97m,0000000032Hz,0000013341c,0000000.029s, 005.8C,00002191
2021-11-19 23:13:24 r, 15.86m,0000000039Hz,0000012041c,0000000.026s, 005.8C,00002191
2021-11-19 23:23:23 r, 15.75m,0000000042Hz,0000010945c,0000000.024s, 005.8C,00002191
2021-11-19 23:33:26 r, 15.63m,0000000047Hz,0000009842c,0000000.021s, 005.8C,00002191
2021-11-19 23:43:24 r, 15.54m,0000000051Hz,0000009045c,0000000.020s, 005.4C,00002191
2021-11-19 23:53:23 r, 15.38m,0000000059Hz,0000007762c,0000000.017s, 005.4C,00002191
